Location: Franzen
(48.6167°N, 15.3833°E)
Time: 18:38:28
(UTC+00:00)

deb Atmosphere 2 - Visible Passes

Search period start: 21 October 2021 00:00
Search period end: 31 October 2021 00:00
Orbit: 827 x 841 km, 98.6° (Epoch: 20 October)

Date Brightness Start Highest point End Pass type
(mag) Time Alt. Az. Time Alt. Az. Time Alt. Az.
21 Oct ? 03:18:59 10° NE 03:22:48 19° E 03:26:34 10° SE visible
21 Oct ? 16:27:17 10° SSW 16:32:01 30° W 16:36:46 10° NNW visible
22 Oct ? 03:03:12 10° NE 03:05:56 14° E 03:08:39 10° ESE visible
22 Oct ? 04:41:40 10° NNE 04:47:07 87° ESE 04:52:31 10° SSW visible
23 Oct ? 04:25:04 10° NNE 04:30:28 65° ESE 04:35:49 10° S visible
24 Oct ? 04:08:32 10° NNE 04:13:46 48° E 04:18:58 10° S visible
24 Oct ? 17:21:29 10° WSW 17:23:12 11° W 17:24:56 10° WNW visible
25 Oct ? 03:52:05 10° NNE 03:57:02 35° E 04:01:56 10° SSE visible
25 Oct ? 17:03:02 10° SW 17:06:18 16° W 17:09:36 10° NW visible
26 Oct ? 03:35:45 10° NE 03:40:16 26° E 03:44:44 10° SSE visible
26 Oct ? 16:45:20 10° SW 16:49:28 22° W 16:53:37 10° NW visible
27 Oct ? 03:19:35 10° NE 03:23:26 20° E 03:27:16 10° SE visible
27 Oct ? 04:58:58 10° N 05:04:21 69° WNW 05:09:42 10° SSW visible
27 Oct ? 16:27:58 10° SSW 16:32:40 29° W 16:37:23 10° NW visible
28 Oct ? 03:03:46 10° NE 03:06:35 14° E 03:09:23 10° ESE visible
28 Oct ? 04:42:18 10° NNE 04:47:44 89° ESE 04:53:08 10° SSW visible
28 Oct ? 16:10:51 10° SSW 16:15:54 39° W 16:20:59 10° NNW visible
29 Oct ? 04:25:41 10° NNE 04:31:06 67° ESE 04:36:27 10° S visible
30 Oct ? 04:09:09 10° NNE 04:14:24 49° E 04:19:36 10° S visible
30 Oct ? 17:22:18 10° W 17:23:50 11° W 17:25:24 10° WNW visible
